| time (UTC) | temp C | wind direction | speed KPH | gust KPH | rain 1hr cm | rain 24hr cm | rain mn cm | humidity % | barometer mb |
| 20260506155525 | 27 | 71 | 0.0 | 4.8 | 0.00 | 0.00 | 0.00 | 89 | 1007.2 |
| 20260506155521 | 27 | 71 | 0.0 | 1.6 | 0.00 | 0.00 | 0.00 | 89 | 1008.5 |
| 20260506155019 | 27 | 119 | 0.0 | 4.8 | 0.00 | 0.00 | 0.00 | 89 | 1008.5 |
| 20260506155017 | 27 | 120 | 0.0 | 4.8 | 0.00 | 0.00 | 0.00 | 89 | 1007.1 |
| 20260506154520 | 27 | 76 | 0.0 | 1.6 | 0.00 | 0.00 | 0.00 | 90 | 1008.1 |
| 20260506154518 | 27 | 15 | 0.0 | 3.2 | 0.00 | 0.00 | 0.00 | 90 | 1007.0 |
| 20260506154022 | 27 | 23 | 0.0 | 1.6 | 0.00 | 0.00 | 0.00 | 90 | 1008.1 |
| 20260506153520 | 27 | 74 | 0.0 | 1.6 | 0.00 | 0.00 | 0.00 | 89 | 1008.1 |
| 20260506153515 | 27 | 88 | 0.0 | 3.2 | 0.00 | 0.00 | 0.00 | 90 | 1007.1 |
| 20260506153020 | 27 | 86 | 0.0 | 3.2 | 0.00 | 0.00 | 0.00 | 90 | 1008.1 |
| 20260506153012 | 27 | 86 | 0.0 | 3.2 | 0.00 | 0.00 | 0.00 | 90 | 1007.0 |
| 20260506152519 | 27 | 31 | 0.0 | 1.6 | 0.00 | 0.00 | 0.00 | 90 | 1008.1 |
| 20260506152021 | 27 | 317 | 0.0 | 1.6 | 0.00 | 0.00 | 0.00 | 90 | 1008.1 |
| 20260506152011 | 27 | 317 | 0.0 | 6.4 | 0.00 | 0.00 | 0.00 | 90 | 1007.0 |
| 20260506151517 | 26 | 75 | 0.0 | 4.8 | 0.00 | 0.00 | 0.00 | 90 | 1008.1 |
| 20260506151019 | 26 | 56 | 0.0 | 1.6 | 0.00 | 0.00 | 0.00 | 92 | 1008.1 |
| 20260506151010 | 26 | 60 | 0.0 | 4.8 | 0.00 | 0.00 | 0.00 | 92 | 1006.8 |
| 20260506150518 | 26 | 65 | 0.0 | 1.6 | 0.00 | 0.00 | 0.00 | 93 | 1007.8 |
| 20260506150510 | 26 | 65 | 0.0 | 4.8 | 0.00 | 0.00 | 0.00 | 93 | 1006.7 |
| 20260506150019 | 26 | 109 | 0.0 | 1.6 | 0.00 | 0.00 | 0.00 | 93 | 1007.8 |
| 20260506150009 | 26 | 109 | 1.6 | 4.8 | 0.00 | 0.00 | 0.00 | 93 | 1006.7 |
| 20260506145519 | 26 | 71 | 0.0 | 4.8 | 0.00 | 0.00 | 0.00 | 94 | 1007.8 |
| 20260506145508 | 26 | 70 | 0.0 | 4.8 | 0.00 | 0.00 | 0.00 | 94 | 1006.6 |
| 20260506145018 | 25 | 234 | 0.0 | 1.6 | 0.00 | 0.00 | 0.00 | 94 | 1007.8 |
| 20260506145008 | 25 | 223 | 0.0 | 1.6 | 0.00 | 0.00 | 0.00 | 94 | 1006.5 |
| 20260506144617 | 25 | 110 | 0.0 | 0.0 | 0.00 | 0.00 | 0.00 | 95 | 1007.5 |
| 20260506144116 | 25 | 105 | 0.0 | 1.6 | 0.00 | 0.00 | 0.00 | 95 | 1007.8 |
| 20260506144008 | 25 | 105 | 0.0 | 4.8 | 0.00 | 0.00 | 0.00 | 94 | 1006.4 |
| 20260506143617 | 25 | 92 | 1.6 | 4.8 | 0.00 | 0.00 | 0.00 | 95 | 1007.8 |
| 20260506143506 | 25 | 71 | 0.0 | 1.6 | 0.00 | 0.00 | 0.00 | 95 | 1006.5 |
| 20260506143116 | 25 | 78 | 0.0 | 1.6 | 0.00 | 0.00 | 0.00 | 95 | 1007.8 |
| 20260506143005 | 25 | 78 | 0.0 | 6.4 | 0.00 | 0.00 | 0.00 | 95 | 1006.6 |
| 20260506142617 | 25 | 111 | 0.0 | 0.0 | 0.00 | 0.00 | 0.00 | 95 | 1007.8 |
| 20260506142502 | 25 | 82 | 0.0 | 6.4 | 0.00 | 0.00 | 0.00 | 95 | 1006.5 |
| 20260506142116 | 25 | 281 | 1.6 | 3.2 | 0.00 | 0.00 | 0.00 | 95 | 1007.8 |
| 20260506142000 | 25 | 103 | 0.0 | 3.2 | 0.00 | 0.00 | 0.00 | 95 | 1006.5 |
| 20260506141616 | 25 | 107 | 0.0 | 3.2 | 0.00 | 0.00 | 0.00 | 95 | 1007.5 |
| 20260506141500 | 25 | 102 | 0.0 | 3.2 | 0.00 | 0.00 | 0.00 | 95 | 1006.5 |
| 20260506141116 | 25 | 103 | 0.0 | 3.2 | 0.00 | 0.00 | 0.00 | 95 | 1007.8 |
| 20260506140617 | 25 | 79 | 0.0 | 3.2 | 0.00 | 0.00 | 0.00 | 95 | 1007.5 |
| 20260506140115 | 25 | 15 | 0.0 | 0.0 | 0.00 | 0.00 | 0.00 | 95 | 1007.5 |
| 20260506135952 | 25 | 15 | 0.0 | 0.0 | 0.00 | 0.00 | 0.00 | 95 | 1006.4 |
| 20260506135616 | 25 | 13 | 0.0 | 0.0 | 0.00 | 0.00 | 0.00 | 95 | 1007.5 |
| 20260506135450 | 25 | 13 | 0.0 | 0.0 | 0.00 | 0.00 | 0.00 | 95 | 1006.3 |
| 20260506135117 | 25 | 12 | 0.0 | 0.0 | 0.00 | 0.00 | 0.00 | 95 | 1007.5 |
| 20260506134949 | 25 | 13 | 0.0 | 1.6 | 0.00 | 0.00 | 0.00 | 95 | 1006.5 |
| 20260506134618 | 25 | 309 | 0.0 | 0.0 | 0.00 | 0.00 | 0.00 | 95 | 1007.5 |
| 20260506134447 | 25 | 309 | 0.0 | 1.6 | 0.00 | 0.00 | 0.00 | 95 | 1006.4 |
| 20260506134114 | 25 | 90 | 0.0 | 1.6 | 0.00 | 0.00 | 0.00 | 95 | 1007.5 |
| 20260506133945 | 25 | 90 | 0.0 | 1.6 | 0.00 | 0.03 | 0.00 | 95 | 1006.4 |
| 20260506133616 | 25 | 90 | 0.0 | 1.6 | 0.00 | 0.00 | 0.00 | 95 | 1007.5 |
| 20260506133444 | 25 | 89 | 0.0 | 1.6 | 0.00 | 0.03 | 0.00 | 95 | 1006.5 |
| 20260506133114 | 25 | 89 | 0.0 | 0.0 | 0.00 | 0.00 | 0.00 | 95 | 1007.8 |
| 20260506132944 | 25 | 90 | 0.0 | 1.6 | 0.00 | 0.03 | 0.00 | 95 | 1006.7 |
| 20260506132614 | 25 | 82 | 0.0 | 0.0 | 0.00 | 0.00 | 0.00 | 95 | 1007.8 |
| 20260506132442 | 25 | 82 | 0.0 | 1.6 | 0.00 | 0.03 | 0.00 | 95 | 1006.6 |
| 20260506132114 | 25 | 82 | 0.0 | 1.6 | 0.00 | 0.00 | 0.00 | 95 | 1007.8 |
| 20260506131940 | 25 | 82 | 0.0 | 1.6 | 0.00 | 0.03 | 0.00 | 95 | 1006.5 |
| 20260506131614 | 25 | 88 | 0.0 | 1.6 | 0.00 | 0.00 | 0.00 | 95 | 1007.8 |
| 20260506131438 | 25 | 88 | 0.0 | 1.6 | 0.00 | 0.03 | 0.00 | 95 | 1006.5 |
| 20260506131115 | 25 | 84 | 0.0 | 0.0 | 0.00 | 0.00 | 0.00 | 96 | 1007.5 |
| 20260506130614 | 25 | 84 | 0.0 | 1.6 | 0.00 | 0.00 | 0.00 | 96 | 1007.8 |
| 20260506130438 | 24 | 85 | 0.0 | 3.2 | 0.00 | 0.03 | 0.00 | 96 | 1006.6 |
| 20260506130113 | 25 | 90 | 0.0 | 1.6 | 0.00 | 0.00 | 0.00 | 96 | 1007.5 |
| 20260506125938 | 24 | 90 | 0.0 | 4.8 | 0.00 | 0.03 | 0.00 | 96 | 1006.5 |
| 20260506125613 | 25 | 65 | 0.0 | 1.6 | 0.00 | 0.00 | 0.00 | 96 | 1007.5 |
| 20260506125112 | 25 | 105 | 0.0 | 1.6 | 0.00 | 0.00 | 0.00 | 96 | 1007.5 |
| 20260506124638 | 24 | 104 | 0.0 | 1.6 | 0.00 | 0.00 | 0.00 | 96 | 1007.5 |
| 20260506124436 | 24 | 105 | 0.0 | 1.6 | 0.00 | 0.03 | 0.00 | 96 | 1006.3 |
| 20260506124138 | 24 | 104 | 0.0 | 1.6 | 0.00 | 0.00 | 0.00 | 96 | 1007.5 |
| 20260506123934 | 24 | 103 | 0.0 | 1.6 | 0.00 | 0.03 | 0.00 | 96 | 1006.4 |
| 20260506123646 | 24 | 103 | 0.0 | 1.6 | 0.00 | 0.00 | 0.00 | 96 | 1007.5 |
| 20260506123431 | 24 | 103 | 0.0 | 1.6 | 0.00 | 0.03 | 0.00 | 96 | 1006.3 |
| 20260506123212 | 24 | 96 | 0.0 | 1.6 | 0.00 | 0.00 | 0.00 | 96 | 1007.5 |
| 20260506122933 | 24 | 101 | 0.0 | 0.0 | 0.00 | 0.03 | 0.00 | 96 | 1006.4 |
| 20260506122717 | 24 | 76 | 0.0 | 0.0 | 0.00 | 0.00 | 0.00 | 96 | 1007.5 |
| 20260506122212 | 24 | 75 | 0.0 | 0.0 | 0.00 | 0.00 | 0.00 | 96 | 1007.5 |
| 20260506121923 | 24 | 75 | 0.0 | 3.2 | 0.00 | 0.03 | 0.00 | 96 | 1006.3 |
| 20260506121717 | 24 | 75 | 0.0 | 0.0 | 0.00 | 0.00 | 0.00 | 96 | 1007.5 |
| 20260506121422 | 24 | 75 | 0.0 | 3.2 | 0.00 | 0.03 | 0.00 | 96 | 1006.4 |
| 20260506121215 | 24 | 69 | 1.6 | 3.2 | 0.00 | 0.00 | 0.00 | 96 | 1007.5 |
| 20260506120922 | 24 | 92 | 0.0 | 1.6 | 0.00 | 0.03 | 0.00 | 96 | 1006.5 |
| 20260506120711 | 24 | 91 | 0.0 | 1.6 | 0.00 | 0.00 | 0.00 | 96 | 1007.5 |
| 20260506120422 | 24 | 94 | 0.0 | 1.6 | 0.00 | 0.03 | 0.00 | 96 | 1006.3 |
| 20260506120215 | 24 | 94 | 0.0 | 0.0 | 0.00 | 0.00 | 0.00 | 96 | 1007.5 |
| 20260506115919 | 24 | 94 | 0.0 | 1.6 | 0.00 | 0.03 | 0.00 | 96 | 1006.2 |
| 20260506115714 | 24 | 94 | 0.0 | 0.0 | 0.00 | 0.00 | 0.00 | 96 | 1007.5 |
| 20260506115418 | 24 | 94 | 0.0 | 1.6 | 0.00 | 0.03 | 0.00 | 96 | 1006.2 |
| 20260506115210 | 24 | 93 | 0.0 | 1.6 | 0.00 | 0.00 | 0.00 | 96 | 1007.5 |
| 20260506114713 | 24 | 94 | 0.0 | 0.0 | 0.00 | 0.00 | 0.00 | 96 | 1007.5 |
| 20260506114212 | 24 | 92 | 0.0 | 0.0 | 0.00 | 0.00 | 0.00 | 96 | 1007.5 |
| 20260506113914 | 24 | 92 | 0.0 | 0.0 | 0.00 | 0.03 | 0.00 | 96 | 1006.2 |
| 20260506113713 | 24 | 92 | 0.0 | 0.0 | 0.00 | 0.00 | 0.00 | 96 | 1007.5 |
| 20260506113412 | 24 | 92 | 0.0 | 1.6 | 0.00 | 0.03 | 0.00 | 96 | 1006.1 |
| 20260506113212 | 24 | 105 | 0.0 | 0.0 | 0.00 | 0.00 | 0.00 | 96 | 1007.1 |
| 20260506112911 | 24 | 105 | 0.0 | 1.6 | 0.00 | 0.03 | 0.00 | 96 | 1006.0 |
| 20260506112710 | 24 | 105 | 0.0 | 0.0 | 0.00 | 0.00 | 0.00 | 96 | 1007.1 |
| 20260506112407 | 24 | 107 | 0.0 | 1.6 | 0.00 | 0.03 | 0.00 | 96 | 1006.0 |
| 20260506112212 | 24 | 107 | 0.0 | 1.6 | 0.00 | 0.00 | 0.00 | 96 | 1007.1 |
| 20260506111908 | 24 | 108 | 0.0 | 1.6 | 0.00 | 0.03 | 0.00 | 96 | 1006.0 |
| 20260506111712 | 24 | 107 | 0.0 | 1.6 | 0.00 | 0.00 | 0.00 | 96 | 1007.1 |
| 20260506111406 | 24 | 76 | 0.0 | 3.2 | 0.00 | 0.03 | 0.00 | 95 | 1005.9 |
| 20260506111214 | 24 | 94 | 0.0 | 0.0 | 0.00 | 0.00 | 0.00 | 95 | 1007.1 |
| 20260506110904 | 24 | 93 | 0.0 | 3.2 | 0.00 | 0.03 | 0.00 | 95 | 1005.9 |
| 20260506110712 | 24 | 94 | 0.0 | 3.2 | 0.00 | 0.00 | 0.00 | 95 | 1007.1 |
| 20260506110404 | 24 | 325 | 0.0 | 1.6 | 0.00 | 0.03 | 0.00 | 95 | 1005.9 |
| 20260506110211 | 24 | 325 | 0.0 | 0.0 | 0.00 | 0.00 | 0.00 | 95 | 1007.1 |
| 20260506105710 | 24 | 101 | 0.0 | 0.0 | 0.00 | 0.00 | 0.00 | 95 | 1006.8 |
| 20260506105404 | 24 | 96 | 0.0 | 1.6 | 0.00 | 0.03 | 0.00 | 95 | 1005.8 |
| 20260506105212 | 24 | 96 | 0.0 | 1.6 | 0.00 | 0.00 | 0.00 | 95 | 1006.8 |
| 20260506104858 | 24 | 97 | 0.0 | 1.6 | 0.00 | 0.03 | 0.00 | 95 | 1005.7 |
| 20260506104741 | 24 | 97 | 0.0 | 1.6 | 0.00 | 0.00 | 0.00 | 95 | 1006.8 |
| 20260506104351 | 24 | 74 | 0.0 | 3.2 | 0.00 | 0.03 | 0.00 | 95 | 1005.6 |
| 20260506104239 | 24 | 74 | 0.0 | 0.0 | 0.00 | 0.00 | 0.00 | 95 | 1006.8 |
| 20260506103852 | 24 | 65 | 0.0 | 3.2 | 0.00 | 0.03 | 0.00 | 95 | 1005.7 |
| 20260506103742 | 24 | 77 | 0.0 | 3.2 | 0.00 | 0.00 | 0.00 | 95 | 1006.8 |
| 20260506103353 | 24 | 132 | 0.0 | 1.6 | 0.00 | 0.03 | 0.00 | 95 | 1005.7 |
| 20260506103244 | 24 | 133 | 0.0 | 0.0 | 0.00 | 0.00 | 0.00 | 95 | 1006.8 |
| 20260506102850 | 24 | 111 | 0.0 | 1.6 | 0.00 | 0.03 | 0.00 | 95 | 1005.6 |
| 20260506102743 | 24 | 61 | 0.0 | 1.6 | 0.00 | 0.00 | 0.00 | 95 | 1006.8 |
| 20260506102351 | 24 | 64 | 0.0 | 1.6 | 0.00 | 0.03 | 0.00 | 95 | 1005.8 |
| 20260506102239 | 24 | 74 | 0.0 | 1.6 | 0.00 | 0.00 | 0.00 | 95 | 1006.8 |
| 20260506101850 | 24 | 74 | 0.0 | 1.6 | 0.00 | 0.03 | 0.00 | 95 | 1005.8 |
| 20260506101741 | 24 | 74 | 0.0 | 1.6 | 0.00 | 0.00 | 0.00 | 95 | 1006.8 |
| 20260506101240 | 24 | 74 | 0.0 | 1.6 | 0.00 | 0.00 | 0.00 | 95 | 1006.8 |
| 20260506100847 | 24 | 74 | 0.0 | 1.6 | 0.00 | 0.03 | 0.00 | 95 | 1005.8 |
| 20260506100739 | 24 | 74 | 0.0 | 0.0 | 0.00 | 0.00 | 0.00 | 95 | 1006.8 |
| 20260506100241 | 24 | 74 | 0.0 | 0.0 | 0.00 | 0.00 | 0.00 | 95 | 1006.8 |
| 20260506095846 | 24 | 67 | 0.0 | 1.6 | 0.00 | 0.03 | 0.00 | 95 | 1005.7 |
| 20260506095729 | 25 | 66 | 0.0 | 0.0 | 0.00 | 0.00 | 0.00 | 95 | 1006.8 |
| 20260506095345 | 24 | 66 | 0.0 | 1.6 | 0.00 | 0.03 | 0.00 | 95 | 1005.7 |
| 20260506095229 | 25 | 67 | 0.0 | 1.6 | 0.00 | 0.00 | 0.00 | 95 | 1006.8 |
| 20260506094847 | 24 | 67 | 0.0 | 1.6 | 0.00 | 0.03 | 0.00 | 95 | 1005.7 |
| 20260506094731 | 25 | 62 | 0.0 | 1.6 | 0.00 | 0.00 | 0.00 | 95 | 1006.8 |
| 20260506094347 | 24 | 61 | 0.0 | 1.6 | 0.00 | 0.03 | 0.00 | 95 | 1005.7 |
| 20260506094230 | 25 | 18 | 0.0 | 0.0 | 0.00 | 0.00 | 0.00 | 95 | 1006.8 |
| 20260506093846 | 24 | 18 | 0.0 | 1.6 | 0.00 | 0.03 | 0.00 | 95 | 1005.7 |
| 20260506093729 | 25 | 18 | 0.0 | 1.6 | 0.00 | 0.00 | 0.00 | 95 | 1006.8 |
| 20260506093343 | 25 | 33 | 0.0 | 1.6 | 0.00 | 0.03 | 0.00 | 95 | 1005.7 |
| 20260506093229 | 25 | 33 | 0.0 | 1.6 | 0.00 | 0.00 | 0.00 | 95 | 1006.8 |
| 20260506092844 | 24 | 34 | 0.0 | 1.6 | 0.00 | 0.03 | 0.00 | 95 | 1005.6 |
| 20260506092728 | 25 | 33 | 0.0 | 0.0 | 0.00 | 0.00 | 0.00 | 95 | 1006.8 |
| 20260506092344 | 25 | 32 | 0.0 | 0.0 | 0.00 | 0.03 | 0.00 | 94 | 1005.7 |
| 20260506092228 | 25 | 32 | 0.0 | 0.0 | 0.00 | 0.00 | 0.00 | 94 | 1006.8 |
| 20260506091844 | 25 | 32 | 0.0 | 0.0 | 0.00 | 0.03 | 0.00 | 94 | 1005.8 |
| 20260506091729 | 25 | 32 | 0.0 | 0.0 | 0.00 | 0.00 | 0.00 | 94 | 1006.8 |
| 20260506091343 | 25 | 32 | 0.0 | 1.6 | 0.00 | 0.03 | 0.00 | 94 | 1005.6 |
| 20260506091230 | 25 | 33 | 0.0 | 0.0 | 0.00 | 0.00 | 0.00 | 94 | 1006.8 |
| 20260506090843 | 25 | 33 | 0.0 | 1.6 | 0.00 | 0.03 | 0.00 | 94 | 1005.6 |
| 20260506090730 | 25 | 32 | 0.0 | 0.0 | 0.00 | 0.00 | 0.00 | 94 | 1006.8 |
| 20260506090343 | 25 | 32 | 0.0 | 1.6 | 0.00 | 0.03 | 0.00 | 94 | 1005.7 |
| 20260506090229 | 25 | 32 | 0.0 | 1.6 | 0.00 | 0.00 | 0.00 | 94 | 1006.8 |
| 20260506085844 | 25 | 32 | 0.0 | 1.6 | 0.00 | 0.03 | 0.00 | 94 | 1005.8 |
| 20260506085728 | 25 | 32 | 0.0 | 0.0 | 0.00 | 0.00 | 0.00 | 94 | 1006.8 |
| 20260506085343 | 25 | 267 | 0.0 | 1.6 | 0.00 | 0.03 | 0.00 | 94 | 1005.4 |
| 20260506085227 | 25 | 267 | 0.0 | 1.6 | 0.00 | 0.00 | 0.00 | 94 | 1006.4 |
| 20260506084841 | 25 | 264 | 0.0 | 1.6 | 0.00 | 0.03 | 0.00 | 94 | 1005.4 |
| 20260506084728 | 25 | 22 | 0.0 | 0.0 | 0.00 | 0.00 | 0.00 | 94 | 1006.4 |
| 20260506084340 | 25 | 23 | 0.0 | 1.6 | 0.00 | 0.03 | 0.00 | 94 | 1005.5 |
| 20260506084226 | 25 | 282 | 0.0 | 0.0 | 0.00 | 0.00 | 0.00 | 94 | 1006.8 |
| 20260506083844 | 25 | 282 | 0.0 | 1.6 | 0.00 | 0.03 | 0.00 | 93 | 1005.7 |
| 20260506083727 | 25 | 283 | 0.0 | 0.0 | 0.00 | 0.00 | 0.00 | 93 | 1006.8 |
| 20260506083340 | 25 | 98 | 0.0 | 1.6 | 0.00 | 0.03 | 0.00 | 93 | 1005.7 |
| 20260506083226 | 25 | 98 | 0.0 | 1.6 | 0.00 | 0.00 | 0.00 | 93 | 1006.8 |
| 20260506082840 | 25 | 98 | 0.0 | 1.6 | 0.00 | 0.03 | 0.00 | 93 | 1005.7 |
| 20260506082727 | 25 | 99 | 0.0 | 1.6 | 0.00 | 0.00 | 0.00 | 93 | 1006.8 |
| 20260506082340 | 25 | 100 | 0.0 | 1.6 | 0.00 | 0.03 | 0.00 | 93 | 1005.7 |
| 20260506082226 | 25 | 100 | 0.0 | 0.0 | 0.00 | 0.00 | 0.00 | 93 | 1006.8 |
| 20260506081841 | 25 | 101 | 0.0 | 1.6 | 0.00 | 0.03 | 0.00 | 93 | 1005.6 |
| 20260506081728 | 25 | 101 | 0.0 | 0.0 | 0.00 | 0.00 | 0.00 | 93 | 1006.8 |
| 20260506081335 | 25 | 103 | 0.0 | 1.6 | 0.00 | 0.03 | 0.00 | 93 | 1005.6 |
| 20260506081225 | 25 | 103 | 0.0 | 1.6 | 0.00 | 0.00 | 0.00 | 93 | 1006.8 |
| 20260506080836 | 25 | 101 | 0.0 | 1.6 | 0.00 | 0.03 | 0.00 | 93 | 1005.7 |
| 20260506080728 | 25 | 92 | 0.0 | 1.6 | 0.00 | 0.00 | 0.00 | 93 | 1006.8 |
| 20260506080336 | 25 | 265 | 0.0 | 1.6 | 0.00 | 0.03 | 0.00 | 93 | 1005.7 |
| 20260506080228 | 25 | 281 | 0.0 | 0.0 | 0.00 | 0.00 | 0.00 | 93 | 1006.8 |
| 20260506073336 | 25 | 151 | 0.0 | 3.2 | 0.00 | 0.03 | 0.00 | 92 | 1006.0 |
| 20260506073226 | 25 | 153 | 0.0 | 0.0 | 0.00 | 0.00 | 0.00 | 92 | 1007.1 |
| 20260506072832 | 25 | 149 | 0.0 | 3.2 | 0.00 | 0.03 | 0.00 | 92 | 1006.1 |
| 20260506072723 | 25 | 210 | 0.0 | 1.6 | 0.00 | 0.00 | 0.00 | 92 | 1007.1 |
| 20260506072331 | 25 | 209 | 0.0 | 3.2 | 0.00 | 0.03 | 0.00 | 92 | 1006.0 |
| 20260506072223 | 25 | 209 | 0.0 | 1.6 | 0.00 | 0.00 | 0.00 | 92 | 1007.1 |
| 20260506071723 | 25 | 184 | 0.0 | 1.6 | 0.00 | 0.00 | 0.00 | 92 | 1007.5 |
| 20260506071331 | 25 | 240 | 0.0 | 1.6 | 0.00 | 0.03 | 0.00 | 92 | 1006.2 |
| 20260506071222 | 25 | 164 | 0.0 | 0.0 | 0.00 | 0.00 | 0.00 | 92 | 1007.5 |
| 20260506070832 | 25 | 163 | 0.0 | 1.6 | 0.00 | 0.03 | 0.00 | 92 | 1006.3 |
| 20260506070722 | 25 | 164 | 0.0 | 1.6 | 0.00 | 0.00 | 0.00 | 92 | 1007.5 |
| 20260506070332 | 25 | 205 | 0.0 | 3.2 | 0.00 | 0.03 | 0.00 | 92 | 1006.4 |
| 20260506070224 | 25 | 72 | 0.0 | 0.0 | 0.00 | 0.00 | 0.00 | 92 | 1007.5 |
| 20260506062328 | 25 | 200 | 0.0 | 3.2 | 0.00 | 0.03 | 0.00 | 92 | 1006.7 |
| 20260506062222 | 25 | 177 | 0.0 | 3.2 | 0.00 | 0.00 | 0.00 | 92 | 1007.8 |
| 20260506061828 | 25 | 183 | 0.0 | 4.8 | 0.00 | 0.03 | 0.00 | 91 | 1006.8 |
| 20260506061722 | 25 | 158 | 1.6 | 3.2 | 0.00 | 0.00 | 0.00 | 91 | 1007.8 |
| 20260506061327 | 25 | 160 | 0.0 | 4.8 | 0.00 | 0.03 | 0.00 | 91 | 1006.8 |
| 20260506061221 | 25 | 69 | 0.0 | 4.8 | 0.00 | 0.00 | 0.00 | 91 | 1008.1 |
| 20260506060829 | 25 | 236 | 0.0 | 4.8 | 0.00 | 0.03 | 0.00 | 91 | 1006.9 |
| 20260506060723 | 25 | 252 | 0.0 | 3.2 | 0.00 | 0.00 | 0.00 | 91 | 1008.1 |
| 20260506060327 | 25 | 191 | 0.0 | 6.4 | 0.00 | 0.03 | 0.00 | 91 | 1006.9 |
| 20260506060221 | 25 | 216 | 0.0 | 1.6 | 0.00 | 0.00 | 0.00 | 91 | 1008.1 |
| 20260506051323 | 25 | 192 | 1.6 | 11.3 | 0.00 | 0.03 | 0.00 | 92 | 1006.6 |
| 20260506051219 | 25 | 190 | 0.0 | 8.0 | 0.00 | 0.00 | 0.00 | 92 | 1007.8 |
| 20260506050825 | 25 | 240 | 1.6 | 11.3 | 0.00 | 0.03 | 0.00 | 92 | 1006.7 |
| 20260506050722 | 25 | 194 | 0.0 | 3.2 | 0.00 | 0.00 | 0.00 | 92 | 1007.8 |
| 20260506050219 | 25 | 205 | 1.6 | 4.8 | 0.00 | 0.00 | 0.00 | 92 | 1007.8 |
| 20260506044820 | 25 | 183 | 1.6 | 9.7 | 0.00 | 0.03 | 0.03 | 92 | 1006.5 |
| 20260506044719 | 25 | 155 | 1.6 | 6.4 | 0.00 | 0.00 | 0.03 | 92 | 1007.5 |
| 20260506044318 | 25 | 188 | 1.6 | 4.8 | 0.00 | 0.03 | 0.03 | 92 | 1006.4 |
| 20260506044217 | 25 | 211 | 0.0 | 3.2 | 0.00 | 0.00 | 0.03 | 92 | 1007.5 |
| 20260506043817 | 25 | 246 | 1.6 | 4.8 | 0.00 | 0.03 | 0.03 | 92 | 1006.4 |
| 20260506043717 | 25 | 223 | 1.6 | 3.2 | 0.00 | 0.00 | 0.03 | 92 | 1007.5 |
| 20260506043218 | 25 | 195 | 0.0 | 4.8 | 0.00 | 0.00 | 0.03 | 92 | 1007.5 |
| 20260506042718 | 25 | 124 | 3.2 | 6.4 | 0.00 | 0.00 | 0.03 | 92 | 1007.5 |
| 20260506042319 | 25 | 198 | 1.6 | 6.4 | 0.00 | 0.03 | 0.03 | 92 | 1006.1 |
| 20260506042216 | 25 | 183 | 1.6 | 3.2 | 0.00 | 0.00 | 0.03 | 92 | 1007.1 |
| 20260506041819 | 25 | 182 | 1.6 | 6.4 | 0.00 | 0.03 | 0.03 | 92 | 1006.1 |
| 20260506041717 | 25 | 229 | 4.8 | 4.8 | 0.00 | 0.00 | 0.03 | 92 | 1007.5 |
| 20260506041318 | 25 | 190 | 0.0 | 4.8 | 0.00 | 0.03 | 0.03 | 91 | 1006.1 |
| 20260506041218 | 25 | 221 | 0.0 | 3.2 | 0.00 | 0.00 | 0.03 | 91 | 1007.1 |
| 20260506040818 | 25 | 231 | 1.6 | 6.4 | 0.00 | 0.03 | 0.03 | 91 | 1006.1 |
| 20260506040718 | 25 | 180 | 0.0 | 1.6 | 0.00 | 0.00 | 0.03 | 91 | 1007.1 |
| 20260506040219 | 25 | 222 | 1.6 | 6.4 | 0.00 | 0.00 | 0.03 | 91 | 1007.5 |
| 20260506035815 | 25 | 236 | 1.6 | 4.8 | 0.00 | 0.03 | 0.03 | 91 | 1006.1 |
| 20260506035718 | 25 | 138 | 3.2 | 3.2 | 0.00 | 0.00 | 0.03 | 91 | 1007.1 |
| 20260506035216 | 25 | 211 | 1.6 | 4.8 | 0.00 | 0.00 | 0.03 | 91 | 1007.1 |
| 20260506034812 | 25 | 217 | 1.6 | 4.8 | 0.00 | 0.03 | 0.03 | 91 | 1006.0 |
| 20260506034717 | 25 | 250 | 0.0 | 3.2 | 0.00 | 0.00 | 0.03 | 91 | 1007.1 |
| 20260506034216 | 25 | 213 | 0.0 | 3.2 | 0.00 | 0.00 | 0.03 | 91 | 1007.1 |
| 20260506033810 | 25 | 208 | 1.6 | 4.8 | 0.00 | 0.03 | 0.03 | 91 | 1005.8 |
| 20260506033715 | 25 | 173 | 0.0 | 4.8 | 0.00 | 0.00 | 0.03 | 91 | 1006.8 |
| 20260506033312 | 25 | 173 | 1.6 | 4.8 | 0.00 | 0.03 | 0.03 | 91 | 1005.8 |
| 20260506033217 | 25 | 225 | 0.0 | 4.8 | 0.00 | 0.00 | 0.03 | 91 | 1006.8 |
| 20260506032810 | 25 | 197 | 1.6 | 4.8 | 0.00 | 0.03 | 0.03 | 91 | 1005.8 |
| 20260506032714 | 25 | 217 | 0.0 | 3.2 | 0.00 | 0.00 | 0.03 | 91 | 1006.8 |
| 20260506032308 | 25 | 173 | 1.6 | 4.8 | 0.00 | 0.03 | 0.03 | 91 | 1005.7 |
| 20260506032214 | 25 | 171 | 1.6 | 3.2 | 0.00 | 0.00 | 0.03 | 91 | 1006.8 |
| 20260506031807 | 25 | 207 | 1.6 | 6.4 | 0.00 | 0.03 | 0.03 | 91 | 1005.8 |
| 20260506031716 | 25 | 201 | 3.2 | 4.8 | 0.00 | 0.00 | 0.03 | 91 | 1007.1 |
| 20260506031308 | 25 | 86 | 1.6 | 6.4 | 0.00 | 0.03 | 0.03 | 91 | 1005.8 |
| 20260506031215 | 25 | 242 | 3.2 | 6.4 | 0.00 | 0.00 | 0.03 | 91 | 1007.1 |
| 20260506030808 | 25 | 170 | 0.0 | 3.2 | 0.00 | 0.03 | 0.03 | 91 | 1005.9 |
| 20260506030713 | 25 | 141 | 3.2 | 3.2 | 0.00 | 0.00 | 0.03 | 91 | 1007.1 |
| 20260506030308 | 25 | 207 | 1.6 | 4.8 | 0.00 | 0.03 | 0.03 | 91 | 1005.8 |
| 20260506030216 | 25 | 208 | 0.0 | 3.2 | 0.00 | 0.00 | 0.03 | 91 | 1006.8 |
| 20260506025808 | 25 | 142 | 0.0 | 4.8 | 0.00 | 0.03 | 0.03 | 91 | 1005.8 |
| 20260506025715 | 25 | 225 | 1.6 | 4.8 | 0.00 | 0.00 | 0.03 | 91 | 1006.8 |
| 20260506025308 | 25 | 191 | 0.0 | 3.2 | 0.00 | 0.03 | 0.03 | 91 | 1005.8 |
| 20260506025213 | 25 | 164 | 0.0 | 1.6 | 0.00 | 0.00 | 0.03 | 91 | 1006.8 |
| 20260506024742 | 25 | 229 | 1.6 | 3.2 | 0.00 | 0.00 | 0.03 | 91 | 1006.8 |
| 20260506024304 | 25 | 191 | 1.6 | 8.0 | 0.00 | 0.03 | 0.03 | 90 | 1005.5 |
| 20260506024242 | 25 | 202 | 1.6 | 8.0 | 0.00 | 0.00 | 0.03 | 90 | 1006.8 |
| 20260506023758 | 25 | 176 | 1.6 | 8.0 | 0.00 | 0.03 | 0.03 | 90 | 1005.5 |
| 20260506023739 | 25 | 37 | 0.0 | 3.2 | 0.00 | 0.00 | 0.03 | 90 | 1006.8 |
| 20260506023257 | 25 | 202 | 1.6 | 8.0 | 0.00 | 0.03 | 0.03 | 90 | 1005.5 |
| 20260506023241 | 25 | 111 | 0.0 | 8.0 | 0.00 | 0.00 | 0.03 | 90 | 1006.4 |
| 20260506022746 | 25 | 226 | 0.0 | 3.2 | 0.00 | 0.03 | 0.03 | 90 | 1005.3 |
| 20260506022744 | 25 | 207 | 1.6 | 1.6 | 0.00 | 0.00 | 0.03 | 90 | 1006.4 |
| 20260506022314 | 25 | 212 | 0.0 | 1.6 | 0.00 | 0.00 | 0.03 | 90 | 1006.4 |
| 20260506021815 | 25 | 248 | 0.0 | 4.8 | 0.00 | 0.00 | 0.03 | 90 | 1006.1 |
| 20260506021744 | 25 | 220 | 1.6 | 6.4 | 0.00 | 0.03 | 0.03 | 90 | 1005.1 |
| 20260506021313 | 25 | 217 | 0.0 | 6.4 | 0.00 | 0.00 | 0.03 | 90 | 1006.1 |
| 20260506021244 | 25 | 217 | 1.6 | 6.4 | 0.00 | 0.03 | 0.03 | 90 | 1005.0 |
| 20260506020814 | 25 | 247 | 3.2 | 6.4 | 0.00 | 0.00 | 0.03 | 90 | 1006.1 |
| 20260506020745 | 25 | 247 | 1.6 | 8.0 | 0.00 | 0.03 | 0.03 | 90 | 1004.9 |
| 20260506020314 | 25 | 219 | 1.6 | 8.0 | 0.00 | 0.00 | 0.03 | 90 | 1006.1 |
| 20260506020245 | 25 | 197 | 1.6 | 8.0 | 0.00 | 0.03 | 0.03 | 90 | 1005.1 |
| 20260506015813 | 25 | 242 | 0.0 | 3.2 | 0.00 | 0.00 | 0.03 | 90 | 1006.1 |
| 20260506015744 | 25 | 244 | 1.6 | 8.0 | 0.00 | 0.03 | 0.03 | 90 | 1005.0 |
| 20260506015312 | 25 | 208 | 0.0 | 6.4 | 0.00 | 0.00 | 0.03 | 90 | 1006.1 |
| 20260506015244 | 25 | 209 | 3.2 | 8.0 | 0.00 | 0.03 | 0.03 | 90 | 1004.9 |
| 20260506014836 | 25 | 284 | 1.6 | 3.2 | 0.00 | 0.00 | 0.03 | 90 | 1006.1 |
| 20260506014339 | 25 | 163 | 1.6 | 6.4 | 0.00 | 0.00 | 0.03 | 90 | 1006.1 |
| 20260506014245 | 25 | 186 | 1.6 | 6.4 | 0.00 | 0.03 | 0.03 | 90 | 1004.9 |
| 20260506013814 | 25 | 202 | 1.6 | 4.8 | 0.00 | 0.00 | 0.03 | 90 | 1005.8 |
| 20260506013743 | 25 | 234 | 1.6 | 6.4 | 0.00 | 0.03 | 0.03 | 90 | 1004.7 |
| 20260506013313 | 25 | 209 | 3.2 | 6.4 | 0.00 | 0.00 | 0.03 | 90 | 1006.1 |
| 20260506013244 | 25 | 193 | 1.6 | 8.0 | 0.00 | 0.03 | 0.03 | 90 | 1004.8 |
| 20260506012813 | 25 | 234 | 1.6 | 4.8 | 0.00 | 0.00 | 0.03 | 89 | 1005.8 |
| 20260506012745 | 25 | 235 | 1.6 | 8.0 | 0.00 | 0.03 | 0.03 | 89 | 1004.7 |
| 20260506012315 | 25 | 273 | 1.6 | 8.0 | 0.00 | 0.00 | 0.03 | 89 | 1005.8 |
| 20260506012243 | 25 | 269 | 1.6 | 8.0 | 0.00 | 0.03 | 0.03 | 89 | 1004.7 |
| 20260506011815 | 25 | 257 | 3.2 | 4.8 | 0.00 | 0.00 | 0.03 | 89 | 1005.8 |
| 20260506011744 | 25 | 257 | 1.6 | 6.4 | 0.00 | 0.03 | 0.03 | 89 | 1004.5 |
| 20260506011315 | 26 | 205 | 3.2 | 6.4 | 0.00 | 0.00 | 0.03 | 89 | 1005.8 |
| 20260506011241 | 26 | 273 | 1.6 | 6.4 | 0.00 | 0.03 | 0.03 | 89 | 1004.4 |
| 20260506010811 | 26 | 210 | 1.6 | 3.2 | 0.00 | 0.00 | 0.03 | 89 | 1005.4 |
| 20260506010739 | 26 | 184 | 1.6 | 4.8 | 0.00 | 0.03 | 0.03 | 89 | 1004.4 |
| 20260506010343 | 26 | 165 | 1.6 | 4.8 | 0.00 | 0.00 | 0.03 | 89 | 1005.4 |
| 20260506005838 | 26 | 204 | 1.6 | 3.2 | 0.00 | 0.00 | 0.03 | 88 | 1005.4 |
| 20260506005738 | 26 | 191 | 1.6 | 6.4 | 0.00 | 0.03 | 0.03 | 88 | 1004.2 |
| 20260506005340 | 26 | 211 | 1.6 | 3.2 | 0.00 | 0.00 | 0.03 | 88 | 1005.4 |
| 20260506005237 | 26 | 203 | 1.6 | 4.8 | 0.00 | 0.03 | 0.03 | 88 | 1004.2 |
| 20260506004841 | 26 | 169 | 3.2 | 4.8 | 0.00 | 0.00 | 0.03 | 88 | 1005.4 |
| 20260506004738 | 26 | 228 | 1.6 | 6.4 | 0.00 | 0.03 | 0.03 | 88 | 1004.3 |
| 20260506004340 | 26 | 229 | 1.6 | 6.4 | 0.00 | 0.00 | 0.03 | 88 | 1005.4 |
| 20260506004238 | 26 | 259 | 1.6 | 6.4 | 0.00 | 0.03 | 0.03 | 88 | 1004.2 |
| 20260506003838 | 26 | 145 | 0.0 | 3.2 | 0.00 | 0.00 | 0.03 | 87 | 1005.1 |
| 20260506003738 | 26 | 231 | 1.6 | 6.4 | 0.00 | 0.03 | 0.03 | 87 | 1004.1 |
| 20260506003342 | 26 | 269 | 0.0 | 6.4 | 0.00 | 0.00 | 0.03 | 87 | 1005.1 |
| 20260506003235 | 26 | 196 | 1.6 | 6.4 | 0.00 | 0.03 | 0.03 | 87 | 1004.0 |
| 20260506002912 | 26 | 313 | 0.0 | 3.2 | 0.00 | 0.00 | 0.03 | 87 | 1005.1 |
| 20260506002737 | 26 | 329 | 1.6 | 4.8 | 0.00 | 0.03 | 0.03 | 87 | 1004.0 |
| 20260506002416 | 26 | 212 | 1.6 | 4.8 | 0.00 | 0.00 | 0.03 | 86 | 1005.1 |
| 20260506002236 | 26 | 209 | 1.6 | 4.8 | 0.00 | 0.03 | 0.03 | 86 | 1004.0 |
| 20260506001914 | 26 | 207 | 3.2 | 3.2 | 0.00 | 0.00 | 0.03 | 86 | 1005.1 |
| 20260506001736 | 26 | 236 | 1.6 | 6.4 | 0.00 | 0.03 | 0.03 | 86 | 1004.1 |
| 20260506001411 | 26 | 161 | 0.0 | 1.6 | 0.00 | 0.00 | 0.03 | 86 | 1005.1 |
| 20260506001236 | 26 | 186 | 1.6 | 8.0 | 0.00 | 0.03 | 0.03 | 86 | 1004.0 |
| 20260506000913 | 27 | 211 | 1.6 | 6.4 | 0.00 | 0.00 | 0.03 | 86 | 1005.1 |
| 20260506000735 | 27 | 243 | 1.6 | 8.0 | 0.00 | 0.03 | 0.03 | 86 | 1004.0 |
| 20260506000411 | 27 | 111 | 1.6 | 4.8 | 0.00 | 0.00 | 0.03 | 85 | 1005.1 |
| 20260506000236 | 27 | 213 | 1.6 | 8.0 | 0.00 | 0.03 | 0.03 | 85 | 1003.8 |
| 20260505235914 | 27 | 193 | 1.6 | 4.8 | 0.00 | 0.00 | 0.03 | 85 | 1005.1 |
| 20260505235736 | 27 | 210 | 1.6 | 8.0 | 0.00 | 0.03 | 0.03 | 85 | 1003.8 |
| 20260505235411 | 27 | 202 | 3.2 | 8.0 | 0.00 | 0.00 | 0.03 | 84 | 1004.7 |
| 20260505235236 | 27 | 193 | 1.6 | 9.7 | 0.00 | 0.03 | 0.03 | 84 | 1003.8 |
| 20260505234914 | 27 | 193 | 3.2 | 6.4 | 0.00 | 0.00 | 0.03 | 84 | 1005.1 |
| 20260505234735 | 27 | 209 | 1.6 | 9.7 | 0.00 | 0.03 | 0.03 | 84 | 1003.9 |
| 20260505234414 | 27 | 220 | 1.6 | 9.7 | 0.00 | 0.00 | 0.03 | 84 | 1004.7 |
| 20260505234235 | 27 | 202 | 1.6 | 6.4 | 0.00 | 0.03 | 0.03 | 84 | 1003.9 |
| 20260505233916 | 27 | 122 | 1.6 | 6.4 | 0.00 | 0.00 | 0.03 | 83 | 1005.1 |
| 20260505233733 | 27 | 167 | 1.6 | 6.4 | 0.00 | 0.03 | 0.03 | 83 | 1003.8 |
| 20260505233412 | 27 | 153 | 0.0 | 6.4 | 0.00 | 0.00 | 0.03 | 83 | 1004.7 |
| 20260505232914 | 28 | 264 | 1.6 | 4.8 | 0.00 | 0.00 | 0.03 | 83 | 1004.7 |
| 20260505232732 | 28 | 182 | 1.6 | 6.4 | 0.00 | 0.03 | 0.03 | 83 | 1003.9 |
| 20260505232413 | 28 | 229 | 0.0 | 4.8 | 0.00 | 0.00 | 0.03 | 83 | 1005.1 |
| 20260505232231 | 28 | 207 | 1.6 | 6.4 | 0.00 | 0.03 | 0.03 | 83 | 1003.9 |
| 20260505231912 | 27 | 326 | 1.6 | 6.4 | 0.00 | 0.00 | 0.03 | 83 | 1005.1 |
| 20260505231733 | 27 | 119 | 1.6 | 6.4 | 0.00 | 0.03 | 0.03 | 83 | 1003.9 |
| 20260505231414 | 27 | 335 | 0.0 | 3.2 | 0.00 | 0.00 | 0.03 | 83 | 1005.1 |
| 20260505230912 | 28 | 244 | 1.6 | 4.8 | 0.00 | 0.00 | 0.03 | 83 | 1005.1 |
| 20260505230733 | 28 | 186 | 1.6 | 6.4 | 0.00 | 0.03 | 0.03 | 83 | 1004.0 |
| 20260505230412 | 28 | 238 | 0.0 | 3.2 | 0.00 | 0.00 | 0.03 | 82 | 1005.1 |
| 20260505230231 | 28 | 179 | 1.6 | 6.4 | 0.00 | 0.03 | 0.03 | 82 | 1004.0 |
| 20260505225939 | 28 | 231 | 0.0 | 6.4 | 0.00 | 0.00 | 0.03 | 82 | 1005.1 |
| 20260505225733 | 28 | 210 | 1.6 | 6.4 | 0.00 | 0.03 | 0.03 | 82 | 1004.0 |
| 20260505225438 | 28 | 222 | 4.8 | 4.8 | 0.00 | 0.00 | 0.03 | 82 | 1005.1 |
| 20260505225229 | 28 | 66 | 1.6 | 6.4 | 0.00 | 0.03 | 0.03 | 82 | 1004.1 |
| 20260505224937 | 28 | 200 | 0.0 | 4.8 | 0.00 | 0.00 | 0.03 | 82 | 1005.1 |
| 20260505224728 | 28 | 258 | 1.6 | 6.4 | 0.00 | 0.03 | 0.03 | 82 | 1004.1 |
| 20260505224440 | 28 | 167 | 4.8 | 6.4 | 0.00 | 0.00 | 0.03 | 82 | 1005.4 |
| 20260505224228 | 28 | 123 | 1.6 | 4.8 | 0.00 | 0.03 | 0.03 | 82 | 1004.1 |
| 20260505223942 | 28 | 333 | 0.0 | 3.2 | 0.00 | 0.00 | 0.03 | 82 | 1005.4 |
| 20260505223728 | 28 | 142 | 1.6 | 8.0 | 0.00 | 0.03 | 0.03 | 82 | 1004.2 |
| 20260505223442 | 28 | 200 | 0.0 | 4.8 | 0.00 | 0.00 | 0.03 | 81 | 1005.4 |
| 20260505223227 | 28 | 235 | 1.6 | 8.0 | 0.00 | 0.03 | 0.03 | 81 | 1004.4 |
| 20260505222942 | 28 | 202 | 0.0 | 4.8 | 0.00 | 0.00 | 0.03 | 81 | 1005.4 |
| 20260505222728 | 28 | 154 | 1.6 | 9.7 | 0.00 | 0.03 | 0.03 | 81 | 1004.4 |
| 20260505222439 | 28 | 261 | 1.6 | 6.4 | 0.00 | 0.00 | 0.03 | 80 | 1005.4 |
| 20260505222227 | 28 | 144 | 1.6 | 9.7 | 0.00 | 0.03 | 0.03 | 80 | 1004.3 |
| 20260505221940 | 28 | 201 | 0.0 | 4.8 | 0.00 | 0.00 | 0.03 | 80 | 1005.4 |
| 20260505221728 | 28 | 225 | 1.6 | 8.0 | 0.00 | 0.03 | 0.03 | 80 | 1004.3 |
| 20260505221440 | 28 | 236 | 0.0 | 3.2 | 0.00 | 0.00 | 0.03 | 80 | 1005.4 |
| 20260505221230 | 28 | 171 | 1.6 | 8.0 | 0.00 | 0.03 | 0.03 | 80 | 1004.3 |
| 20260505220942 | 28 | 182 | 3.2 | 8.0 | 0.00 | 0.00 | 0.03 | 80 | 1005.8 |
| 20260505220725 | 28 | 275 | 1.6 | 6.4 | 0.00 | 0.03 | 0.03 | 79 | 1004.3 |
| 20260505220436 | 29 | 253 | 1.6 | 6.4 | 0.00 | 0.00 | 0.03 | 79 | 1005.8 |
| 20260505220225 | 29 | 211 | 1.6 | 6.4 | 0.00 | 0.03 | 0.03 | 79 | 1004.4 |
| 20260505215941 | 29 | 265 | 0.0 | 1.6 | 0.00 | 0.00 | 0.03 | 79 | 1005.4 |
| 20260505215724 | 29 | 221 | 1.6 | 6.4 | 0.00 | 0.03 | 0.03 | 79 | 1004.3 |
| 20260505215510 | 29 | 239 | 0.0 | 6.4 | 0.00 | 0.00 | 0.03 | 79 | 1005.4 |
| 20260505215224 | 29 | 262 | 1.6 | 6.4 | 0.00 | 0.03 | 0.03 | 79 | 1004.4 |
| 20260505215012 | 29 | 350 | 0.0 | 1.6 | 0.00 | 0.00 | 0.03 | 79 | 1005.4 |
| 20260505214723 | 29 | 251 | 1.6 | 6.4 | 0.00 | 0.03 | 0.03 | 79 | 1004.3 |
| 20260505214514 | 29 | 148 | 1.6 | 4.8 | 0.00 | 0.00 | 0.03 | 79 | 1005.4 |
| 20260505214225 | 29 | 244 | 1.6 | 9.7 | 0.00 | 0.03 | 0.03 | 78 | 1004.4 |
| 20260505214012 | 29 | 150 | 0.0 | 3.2 | 0.00 | 0.00 | 0.03 | 78 | 1005.8 |
| 20260505213725 | 29 | 92 | 1.6 | 9.7 | 0.00 | 0.03 | 0.03 | 79 | 1004.4 |
| 20260505213511 | 29 | 214 | 0.0 | 1.6 | 0.00 | 0.00 | 0.03 | 79 | 1005.8 |
| 20260505213223 | 29 | 54 | 1.6 | 8.0 | 0.00 | 0.03 | 0.03 | 79 | 1004.5 |
| 20260505213012 | 29 | 248 | 1.6 | 3.2 | 0.00 | 0.00 | 0.03 | 79 | 1005.8 |
| 20260505212723 | 29 | 258 | 0.0 | 8.0 | 0.00 | 0.03 | 0.03 | 78 | 1004.5 |
| 20260505212510 | 29 | 244 | 1.6 | 1.6 | 0.00 | 0.00 | 0.03 | 79 | 1005.8 |
| 20260505212220 | 29 | 178 | 1.6 | 8.0 | 0.00 | 0.03 | 0.03 | 78 | 1004.6 |
| 20260505212013 | 29 | 229 | 0.0 | 4.8 | 0.00 | 0.00 | 0.03 | 78 | 1005.8 |
| 20260505211720 | 29 | 291 | 1.6 | 8.0 | 0.00 | 0.03 | 0.03 | 78 | 1004.8 |
| 20260505211514 | 30 | 268 | 0.0 | 8.0 | 0.00 | 0.00 | 0.03 | 78 | 1005.8 |
| 20260505211220 | 29 | 309 | 0.0 | 3.2 | 0.00 | 0.03 | 0.03 | 78 | 1004.8 |
| 20260505211012 | 30 | 232 | 0.0 | 1.6 | 0.00 | 0.00 | 0.03 | 78 | 1006.1 |
| 20260505210720 | 30 | 225 | 1.6 | 9.7 | 0.00 | 0.03 | 0.03 | 77 | 1004.8 |
| 20260505210514 | 30 | 22 | 0.0 | 1.6 | 0.00 | 0.00 | 0.03 | 77 | 1006.1 |
| 20260505210219 | 29 | 290 | 3.2 | 9.7 | 0.00 | 0.03 | 0.03 | 76 | 1004.9 |
| 20260505210014 | 30 | 219 | 0.0 | 9.7 | 0.00 | 0.00 | 0.03 | 75 | 1006.1 |
| 20260505205719 | 29 | 306 | 3.2 | 9.7 | 0.00 | 0.03 | 0.03 | 76 | 1004.9 |
| 20260505205512 | 30 | 231 | 4.8 | 4.8 | 0.00 | 0.00 | 0.03 | 76 | 1006.1 |
| 20260505205222 | 29 | 234 | 3.2 | 9.7 | 0.00 | 0.03 | 0.03 | 76 | 1005.0 |
| 20260505205015 | 30 | 231 | 3.2 | 6.4 | 0.00 | 0.00 | 0.03 | 75 | 1006.1 |
| 20260505204720 | 30 | 165 | 3.2 | 9.7 | 0.00 | 0.03 | 0.03 | 75 | 1005.0 |
| 20260505204541 | 30 | 182 | 4.8 | 9.7 | 0.00 | 0.00 | 0.03 | 74 | 1006.1 |
| 20260505204219 | 30 | 234 | 1.6 | 8.0 | 0.00 | 0.03 | 0.03 | 75 | 1005.1 |
| 20260505204043 | 30 | 215 | 1.6 | 8.0 | 0.00 | 0.00 | 0.03 | 75 | 1006.1 |
| 20260505203720 | 30 | 271 | 1.6 | 4.8 | 0.00 | 0.03 | 0.03 | 75 | 1005.2 |
| 20260505203542 | 30 | 157 | 3.2 | 4.8 | 0.00 | 0.00 | 0.03 | 75 | 1006.4 |
| 20260505203220 | 30 | 250 | 1.6 | 6.4 | 0.00 | 0.03 | 0.03 | 75 | 1005.3 |
| 20260505203042 | 30 | 264 | 0.0 | 4.8 | 0.00 | 0.00 | 0.03 | 76 | 1006.4 |
| 20260505202538 | 30 | 174 | 0.0 | 6.4 | 0.00 | 0.00 | 0.03 | 76 | 1006.4 |
| 20260505202038 | 30 | 176 | 0.0 | 4.8 | 0.00 | 0.00 | 0.03 | 77 | 1006.4 |
| 20260505201720 | 29 | 215 | 1.6 | 6.4 | 0.00 | 0.03 | 0.03 | 76 | 1005.3 |
| 20260505201539 | 30 | 200 | 3.2 | 6.4 | 0.00 | 0.00 | 0.03 | 77 | 1006.4 |
| 20260505201220 | 29 | 291 | 1.6 | 4.8 | 0.00 | 0.03 | 0.03 | 76 | 1005.3 |
| 20260505201036 | 29 | 284 | 1.6 | 3.2 | 0.00 | 0.00 | 0.03 | 76 | 1006.4 |
| 20260505200539 | 29 | 234 | 0.0 | 4.8 | 0.00 | 0.00 | 0.03 | 77 | 1006.4 |
| 20260505200043 | 29 | 231 | 0.0 | 6.4 | 0.00 | 0.00 | 0.03 | 77 | 1006.4 |
| 20260505195720 | 29 | 212 | 3.2 | 14.5 | 0.00 | 0.03 | 0.03 | 77 | 1005.5 |
| 20260505195613 | 29 | 240 | 1.6 | 14.5 | 0.00 | 0.00 | 0.03 | 77 | 1006.4 |
| 20260505195219 | 29 | 269 | 3.2 | 12.9 | 0.00 | 0.03 | 0.03 | 78 | 1005.6 |
| 20260505195114 | 29 | 202 | 0.0 | 6.4 | 0.00 | 0.00 | 0.03 | 78 | 1006.8 |
| 20260505194720 | 29 | 210 | 3.2 | 12.9 | 0.00 | 0.03 | 0.03 | 78 | 1005.7 |
| 20260505194612 | 29 | 236 | 1.6 | 9.7 | 0.00 | 0.00 | 0.03 | 78 | 1006.8 |
| 20260505194221 | 29 | 215 | 1.6 | 12.9 | 0.00 | 0.03 | 0.03 | 78 | 1005.8 |
| 20260505194113 | 29 | 235 | 1.6 | 12.9 | 0.00 | 0.00 | 0.03 | 78 | 1006.8 |
| 20260505193726 | 29 | 293 | 1.6 | 6.4 | 0.00 | 0.03 | 0.03 | 78 | 1005.8 |
| 20260505193611 | 29 | 234 | 3.2 | 4.8 | 0.00 | 0.00 | 0.03 | 78 | 1006.8 |
| 20260505193220 | 29 | 246 | 1.6 | 8.0 | 0.00 | 0.03 | 0.03 | 78 | 1005.8 |
| 20260505193111 | 29 | 258 | 1.6 | 3.2 | 0.00 | 0.00 | 0.03 | 79 | 1007.1 |
| 20260505192719 | 28 | 223 | 1.6 | 11.3 | 0.00 | 0.03 | 0.03 | 79 | 1006.0 |
| 20260505192613 | 28 | 235 | 3.2 | 8.0 | 0.00 | 0.00 | 0.03 | 79 | 1007.1 |
| 20260505192222 | 28 | 221 | 1.6 | 11.3 | 0.00 | 0.03 | 0.03 | 80 | 1006.0 |
| 20260505192114 | 28 | 221 | 0.0 | 4.8 | 0.00 | 0.00 | 0.03 | 80 | 1007.1 |
| 20260505191721 | 28 | 257 | 0.0 | 6.4 | 0.00 | 0.03 | 0.03 | 81 | 1006.0 |
| 20260505191614 | 28 | 196 | 1.6 | 3.2 | 0.00 | 0.00 | 0.03 | 81 | 1007.1 |
| 20260505191220 | 28 | 261 | 1.6 | 8.0 | 0.00 | 0.03 | 0.03 | 81 | 1006.0 |
| 20260505191114 | 28 | 150 | 0.0 | 1.6 | 0.00 | 0.00 | 0.03 | 81 | 1007.1 |
| 20260505190715 | 28 | 238 | 3.2 | 9.7 | 0.00 | 0.03 | 0.03 | 81 | 1006.0 |
| 20260505190613 | 28 | 240 | 1.6 | 6.4 | 0.00 | 0.00 | 0.03 | 81 | 1007.1 |
| 20260505190113 | 28 | 186 | 0.0 | 6.4 | 0.00 | 0.00 | 0.03 | 82 | 1007.1 |
| 20260505185702 | 27 | 221 | 3.2 | 9.7 | 0.00 | 0.03 | 0.03 | 82 | 1006.1 |
| 20260505185613 | 27 | 217 | 0.0 | 6.4 | 0.00 | 0.00 | 0.03 | 82 | 1007.5 |
| 20260505185156 | 27 | 215 | 3.2 | 6.4 | 0.00 | 0.03 | 0.03 | 82 | 1006.2 |
| 20260505185114 | 27 | 207 | 3.2 | 6.4 | 0.00 | 0.00 | 0.03 | 82 | 1007.5 |
| 20260505184650 | 27 | 217 | 1.6 | 6.4 | 0.00 | 0.03 | 0.03 | 83 | 1006.2 |
| 20260505184611 | 27 | 196 | 1.6 | 3.2 | 0.00 | 0.00 | 0.03 | 83 | 1007.5 |
| 20260505184143 | 27 | 207 | 1.6 | 4.8 | 0.00 | 0.03 | 0.03 | 83 | 1006.3 |
| 20260505184113 | 27 | 234 | 0.0 | 4.8 | 0.00 | 0.00 | 0.03 | 83 | 1007.5 |
| 20260505183638 | 27 | 214 | 1.6 | 6.4 | 0.00 | 0.03 | 0.03 | 84 | 1006.4 |
| 20260505183612 | 27 | 227 | 0.0 | 1.6 | 0.00 | 0.00 | 0.03 | 84 | 1007.5 |
| 20260505183113 | 27 | 232 | 1.6 | 6.4 | 0.00 | 0.00 | 0.03 | 83 | 1007.5 |
| 20260505182626 | 27 | 224 | 1.6 | 6.4 | 0.00 | 0.03 | 0.03 | 83 | 1006.4 |
| 20260505182615 | 27 | 237 | 3.2 | 3.2 | 0.00 | 0.00 | 0.03 | 83 | 1007.5 |
| 20260505182114 | 27 | 230 | 1.6 | 6.4 | 0.00 | 0.00 | 0.03 | 82 | 1007.5 |
| 20260505181614 | 27 | 227 | 1.6 | 3.2 | 0.00 | 0.03 | 0.03 | 82 | 1006.5 |
| 20260505181612 | 27 | 203 | 1.6 | 3.2 | 0.00 | 0.00 | 0.03 | 82 | 1007.5 |
| 20260505181116 | 28 | 176 | 3.2 | 3.2 | 0.00 | 0.00 | 0.03 | 81 | 1007.8 |
| 20260505181110 | 28 | 176 | 1.6 | 8.0 | 0.00 | 0.03 | 0.03 | 81 | 1006.5 |
| 20260505180614 | 28 | 159 | 0.0 | 1.6 | 0.00 | 0.00 | 0.03 | 82 | 1007.8 |
| 20260505180602 | 28 | 159 | 1.6 | 8.0 | 0.00 | 0.03 | 0.03 | 82 | 1006.6 |
| 20260505180111 | 28 | 279 | 0.0 | 3.2 | 0.00 | 0.00 | 0.03 | 82 | 1007.8 |
| 20260505175614 | 28 | 219 | 0.0 | 3.2 | 0.00 | 0.00 | 0.03 | 82 | 1007.8 |
| 20260505175550 | 28 | 219 | 0.0 | 3.2 | 0.00 | 0.03 | 0.03 | 82 | 1006.6 |
| 20260505175137 | 28 | 202 | 0.0 | 3.2 | 0.00 | 0.00 | 0.03 | 83 | 1007.8 |
| 20260505175044 | 28 | 201 | 1.6 | 6.4 | 0.00 | 0.03 | 0.03 | 83 | 1006.6 |
| 20260505174641 | 27 | 196 | 0.0 | 6.4 | 0.00 | 0.00 | 0.03 | 84 | 1007.8 |
| 20260505174538 | 27 | 196 | 3.2 | 8.0 | 0.00 | 0.03 | 0.03 | 84 | 1006.6 |
| 20260505174143 | 27 | 226 | 0.0 | 4.8 | 0.00 | 0.00 | 0.03 | 84 | 1007.8 |
| 20260505174032 | 27 | 238 | 3.2 | 9.7 | 0.00 | 0.03 | 0.03 | 84 | 1006.6 |
| 20260505173639 | 27 | 217 | 3.2 | 9.7 | 0.00 | 0.00 | 0.03 | 85 | 1007.8 |
| 20260505173526 | 27 | 234 | 1.6 | 9.7 | 0.00 | 0.03 | 0.03 | 85 | 1006.6 |
| 20260505173140 | 27 | 168 | 1.6 | 3.2 | 0.00 | 0.00 | 0.03 | 86 | 1007.8 |
| 20260505172711 | 27 | 216 | 1.6 | 3.2 | 0.00 | 0.00 | 0.03 | 85 | 1007.8 |
| 20260505172514 | 27 | 180 | 1.6 | 16.1 | 0.00 | 0.03 | 0.03 | 85 | 1006.7 |
| 20260505172237 | 27 | 215 | 4.8 | 6.4 | 0.00 | 0.00 | 0.03 | 86 | 1008.1 |
| 20260505172008 | 27 | 248 | 1.6 | 16.1 | 0.00 | 0.03 | 0.03 | 86 | 1006.9 |
| 20260505171734 | 27 | 160 | 1.6 | 1.6 | 0.00 | 0.00 | 0.03 | 87 | 1008.1 |
| 20260505171502 | 27 | 211 | 1.6 | 8.0 | 0.00 | 0.03 | 0.03 | 86 | 1006.9 |
| 20260505171234 | 27 | 229 | 0.0 | 4.8 | 0.00 | 0.00 | 0.03 | 87 | 1008.1 |
| 20260505170956 | 26 | 219 | 1.6 | 6.4 | 0.00 | 0.03 | 0.03 | 88 | 1006.9 |
| 20260505170736 | 26 | 178 | 1.6 | 3.2 | 0.00 | 0.00 | 0.03 | 88 | 1008.1 |
| 20260505170451 | 26 | 233 | 1.6 | 6.4 | 0.00 | 0.03 | 0.03 | 88 | 1007.0 |
| 20260505170235 | 26 | 217 | 1.6 | 6.4 | 0.00 | 0.00 | 0.03 | 88 | 1008.1 |
| 20260505165944 | 26 | 205 | 3.2 | 9.7 | 0.00 | 0.03 | 0.03 | 88 | 1007.0 |
| 20260505165735 | 26 | 217 | 0.0 | 3.2 | 0.00 | 0.00 | 0.03 | 88 | 1008.1 |
| 20260505165438 | 26 | 175 | 4.8 | 14.5 | 0.00 | 0.03 | 0.03 | 88 | 1007.1 |
| 20260505165235 | 26 | 228 | 3.2 | 9.7 | 0.00 | 0.00 | 0.03 | 88 | 1008.1 |
| 20260505164932 | 26 | 223 | 4.8 | 14.5 | 0.00 | 0.03 | 0.03 | 88 | 1007.0 |
| 20260505164735 | 26 | 207 | 3.2 | 12.9 | 0.00 | 0.00 | 0.03 | 88 | 1008.1 |
| 20260505164427 | 26 | 234 | 3.2 | 11.3 | 0.00 | 0.03 | 0.03 | 89 | 1007.0 |
| 20260505164234 | 26 | 217 | 3.2 | 8.0 | 0.00 | 0.00 | 0.03 | 90 | 1008.1 |
| 20260505163735 | 26 | 217 | 4.8 | 6.4 | 0.00 | 0.00 | 0.03 | 90 | 1008.5 |
| 20260505163414 | 26 | 228 | 4.8 | 14.5 | 0.00 | 0.03 | 0.03 | 90 | 1007.2 |
| 20260505163235 | 26 | 238 | 6.4 | 9.7 | 0.00 | 0.00 | 0.03 | 90 | 1008.5 |
| 20260505162915 | 25 | 243 | 3.2 | 8.0 | 0.00 | 0.03 | 0.03 | 91 | 1007.2 |
| 20260505162746 | 25 | 209 | 4.8 | 6.4 | 0.00 | 0.00 | 0.03 | 92 | 1008.5 |
| 20260505162234 | 25 | 212 | 1.6 | 4.8 | 0.00 | 0.00 | 0.03 | 92 | 1008.1 |
| 20260505161735 | 25 | 244 | 3.2 | 8.0 | 0.00 | 0.00 | 0.03 | 92 | 1008.5 |
| 20260505161413 | 25 | 233 | 3.2 | 12.9 | 0.00 | 0.03 | 0.03 | 92 | 1007.2 |
| 20260505161233 | 25 | 178 | 1.6 | 6.4 | 0.00 | 0.00 | 0.03 | 93 | 1008.5 |
| 20260505160914 | 25 | 218 | 1.6 | 6.4 | 0.00 | 0.03 | 0.03 | 93 | 1007.1 |
| 20260505160733 | 25 | 236 | 1.6 | 1.6 | 0.00 | 0.00 | 0.03 | 94 | 1008.5 |
| 20260505160411 | 25 | 221 | 3.2 | 17.7 | 0.00 | 0.03 | 0.03 | 94 | 1007.1 |
| 20260505160233 | 25 | 230 | 3.2 | 4.8 | 0.00 | 0.00 | 0.03 | 94 | 1008.5 |